Lapse_Rate
7.4 6.5 6.5 6.5 6.5 6.5 6.5 6.5 6.5 6.5 6.5 6.5 6.5 6.5 6.5 6.9 6.9 6.8 6.8 7.5 8.1 8.3 8.9 9.2 9.4 9.5 9.5 9.6 9.5 9.4 9.4 8.4 8.4 9.6 9.6 9.6 9.6 9.7 9.9 9.7 9.1 8.3 8.8 8.5
6.5 6.5 6.5 6.5 6.5 6.5 6.5 6.5 6.5 6.5 6.5 6.5 6.5 6.5 6.5 7.1 7.1 7.0 7.1 7.8 7.9 8.3 8.5 8.7 9.2 9.3 9.4 9.4 9.4 9.3 9.2 8.8 8.2 9.7 9.6 9.7 9.6 9.9 9.9 9.6 9.4 9.5 9.1 8.3
6.5 6.5 6.6 6.5 6.5 6.5 6.5 6.5 6.5 6.5 6.5 6.5 6.5 6.5 6.5 6.6 7.3 7.7 7.1 6.8 7.7 7.9 8.4 8.7 8.9 9.2 9.4 9.2 9.3 9.3 9.2 9.2 7.8 9.3 9.6 8.2 8.9 7.7 8.1 9.6 9.8 9.5 9.4 9.1
6.5 6.7 6.5 6.5 6.5 6.5 6.5 6.5 6.5 6.5 6.5 6.5 6.5 6.5 6.5 6.5 6.5 6.9 7.6 5.5 7.4 8.4 8.6 8.9 9.1 9.1 9.3 9.3 9.5 9.4 9.2 8.1 7.3 7.6 9.5 9.2 9.4 8.9 9.1 8.6 9.6 9.7 9.4 9.5
6.5 6.5 6.5 6.5 6.5 6.5 6.5 6.5 6.5 6.5 6.5 6.5 6.5 6.5 6.5 6.5 6.5 6.5 7.2 7.2 7.5 7.7 8.6 8.6 8.8 9.1 9.3 9.5 9.5 9.6 9.3 7.7 8.3 7.6 8.6 9.3 9.2 9.6 9.7 9.7 8.7 9.5 9.1 9.4
6.5 7.3 6.6 6.5 6.5 6.5 6.5 6.5 6.5 6.5 6.5 6.5 6.5 6.5 6.5 6.5 6.5 6.5 7.0 7.8 7.9 7.9 8.6 8.8 9.1 9.2 9.3 9.5 9.6 9.6 9.2 7.8 7.7 7.3 7.6 7.9 8.0 9.3 9.4 9.4 9.4 9.6 9.8 9.7
6.5 6.5 6.6 6.9 6.5 6.5 6.5 6.5 6.5 6.5 6.5 6.5 6.5 6.5 6.5 6.5 6.5 6.7 6.9 7.6 8.1 8.1 8.2 8.4 8.6 9.1 9.1 9.2 9.3 9.5 9.2 8.7 8.8 8.9 8.0 8.1 8.2 9.0 8.9 8.8 9.3 9.2 9.4 9.8
6.5 6.5 6.5 6.5 6.5 6.5 6.5 6.5 6.5 6.5 6.5 6.5 6.5 6.5 6.5 6.5 7.1 7.4 7.7 7.9 8.1 8.2 8.1 7.7 8.8 9.0 9.1 9.2 9.3 9.3 9.1 8.2 9.0 9.0 8.8 8.0 8.4 8.0 8.0 9.1 9.7 9.8 9.7 9.7
6.5 6.5 6.5 6.5 6.5 6.5 6.5 6.5 6.5 6.5 6.5 6.5 6.5 6.5 6.5 6.5 6.5 7.1 7.4 7.7 7.6 7.8 7.5 8.5 8.9 9.1 9.2 9.1 9.1 9.2 9.2 8.9 9.1 9.3 8.8 8.4 8.1 8.0 7.5 8.7 8.3 9.6 9.6 9.8
6.5 6.5 6.5 6.5 6.7 6.7 6.5 6.5 6.5 6.5 6.5 6.5 6.5 6.5 6.5 6.5 6.5 6.5 6.8 7.5 7.9 8.0 7.9 8.5 8.7 8.9 9.1 9.2 9.2 9.3 9.3 9.1 9.1 9.4 9.4 9.4 9.4 8.0 8.0 7.6 7.7 8.6 9.2 9.7
6.5 6.5 6.5 6.5 6.5 6.5 6.5 6.5 6.5 6.5 6.5 6.5 6.5 6.5 6.5 6.5 6.5 6.5 7.0 7.7 8.0 8.3 8.4 8.3 8.7 8.9 9.1 9.2 9.0 9.2 9.2 9.2 9.2 9.1 9.4 9.3 9.4 9.2 8.1 8.6 7.9 8.0 8.3 8.2
6.5 6.5 6.5 6.5 6.5 6.5 6.5 6.5 6.5 6.5 6.5 6.5 6.5 6.5 6.5 6.5 6.8 7.1 7.2 7.7 8.2 8.4 8.4 7.5 8.4 8.7 8.9 8.9 9.1 8.7 9.2 9.2 9.3 9.4 9.2 9.4 9.4 9.4 8.6 8.2 8.3 7.7 7.6 7.7
6.5 6.5 6.5 6.5 6.5 6.5 6.5 6.5 6.5 6.5 6.5 6.5 6.5 6.5 6.5 6.9 6.8 7.3 7.3 7.6 7.8 7.8 8.2 8.6 8.5 8.5 8.6 8.8 8.8 8.9 9.0 9.2 9.3 9.4 9.5 9.4 8.9 9.3 9.3 8.8 8.5 8.1 7.8 7.7
6.6 6.5 6.5 6.5 6.5 6.5 6.5 6.5 6.5 6.5 6.5 6.5 6.5 6.5 6.5 6.5 6.5 7.1 7.4 7.5 7.6 7.7 8.0 8.1 8.2 8.6 8.6 8.5 7.0 6.9 7.6 8.4 8.1 9.2 9.3 9.1 9.0 8.6 8.9 8.4 7.9 8.1 8.0 8.0
6.5 6.5 6.5 6.5 6.5 6.5 6.5 6.5 6.5 6.5 6.5 6.5 6.5 6.5 6.5 6.5 6.5 7.2 7.5 7.4 7.4 7.6 7.8 8.0 8.4 8.5 7.2 7.2 7.2 7.2 7.1 5.9 5.2 5.3 6.4 6.4 5.6 6.4 6.7 6.7 6.9 7.9 8.6 9.1
6.5 6.5 6.5 6.5 6.5 6.5 6.5 6.5 6.5 6.5 6.5 6.5 6.5 6.5 6.5 7.2 7.5 7.3 7.4 7.6 7.7 7.9 8.0 8.2 8.3 7.7 6.9 5.3 5.8 5.8 5.6 5.6 6.2 5.6 5.0 5.3 5.7 5.4 5.3 5.4 4.9 5.5 8.3 9.2
6.5 6.5 6.5 6.5 6.5 6.5 6.5 6.5 6.5 6.5 6.5 6.5 6.5 6.5 6.6 6.5 6.8 7.2 7.3 7.7 7.6 7.8 8.2 8.3 8.3 7.3 6.4 5.3 4.0 3.5 3.1 4.1 4.3 4.8 6.1 5.3 5.8 5.4 5.2 4.5 4.3 3.8 4.8 6.0
6.5 6.5 6.5 6.5 6.5 6.5 6.5 6.5 6.5 6.5 6.5 6.5 6.5 6.5 6.7 7.0 7.3 7.4 7.9 7.6 7.6 8.2 7.8 4.7 4.0 3.3 3.4 4.5 4.6 3.9 2.4 2.7 3.1 3.4 3.6 3.9 4.6 4.8 4.7 4.5 5.8 5.7 5.6 5.3
6.6 6.5 6.5 6.5 6.5 6.5 6.5 6.5 6.5 6.5 6.5 6.5 6.5 6.6 7.1 7.3 7.3 7.2 8.0 8.4 8.4 8.1 5.7 3.5 2.6 2.2 2.1 3.1 4.5 4.6 3.7 2.2 4.3 3.4 3.1 3.5 3.5 3.9 3.6 3.4 5.3 6.8 7.2 6.9
6.5 6.5 6.5 6.5 6.5 6.5 6.5 6.5 7.3 6.9 6.5 6.9 7.0 6.8 6.9 7.0 6.5 6.5 8.0 8.5 8.6 7.3 5.1 3.8 3.0 2.2 1.7 1.6 2.6 2.9 1.6 3.7 4.5 4.3 2.8 2.2 3.1 4.1 2.9 2.9 4.7 5.0 6.2 5.4
6.5 6.5 6.5 6.5 6.5 6.5 6.5 7.0 7.4 6.5 6.5 7.3 7.3 7.3 7.2 6.6 7.2 7.8 8.4 8.1 8.4 7.7 5.4 5.1 3.8 2.8 2.4 2.6 2.1 1.8 2.6 3.1 4.0 3.5 3.2 2.8 4.5 3.5 4.5 4.6 4.8 5.6 6.4 6.4
6.5 6.5 6.5 6.5 6.5 6.5 7.2 6.8 6.5 6.8 7.5 7.6 7.6 7.6 7.5 7.5 8.1 8.3 7.5 7.0 5.2 4.8 5.3 4.9 4.4 3.6 3.6 3.7 3.4 2.3 2.6 2.9 3.5 3.7 3.0 2.4 2.9 3.7 4.3 4.6 5.3 6.4 5.9 5.9
6.5 6.5 6.5 6.5 6.5 7.0 7.6 7.3 7.8 8.1 7.7 7.7 7.7 7.9 8.1 8.1 7.9 7.3 5.7 4.9 5.4 6.5 8.0 6.1 3.3 2.6 5.1 3.2 4.1 3.5 2.4 3.3 3.5 3.8 3.3 2.9 3.3 2.4 3.0 3.8 4.4 5.7 6.2 9.2
6.5 7.1 6.5 6.5 6.6 6.9 7.5 7.9 8.1 8.2 8.1 8.2 8.3 8.3 8.2 8.1 8.4 8.3 8.3 8.3 5.4 5.4 6.5 7.1 5.0 4.0 2.9 4.1 3.4 2.5 3.1 3.3 4.7 4.3 4.3 4.4 4.5 4.0 4.2 4.6 4.8 6.1 7.0 6.8
6.8 6.8 6.5 6.5 6.8 7.2 7.6 7.9 8.1 8.2 8.4 8.4 8.6 8.6 8.4 8.5 8.5 8.5 8.3 7.9 7.4 7.0 6.7 6.1 4.9 4.8 4.5 4.0 4.2 4.1 3.7 4.8 5.9 5.6 6.0 5.8 5.3 4.8 4.4 3.4 2.9 3.3 1.0 1.7
7.2 6.5 6.5 6.5 7.1 7.1 7.3 8.0 8.3 8.1 8.2 8.4 8.4 8.4 8.7 8.7 8.5 8.5 8.1 4.2 3.4 5.7 6.6 8.2 7.8 7.1 5.7 5.4 4.9 4.7 5.2 6.5 7.9 7.5 8.1 8.9 8.2 8.1 7.3 6.1 3.8 -1.0 -0.9 -1.3
Wind_Speed
14 10 16 16 13 7 4 5 9 9 11 14 14 10 23 15 12 8 8 14 15 14 12 12 10 11 11 11 12 12 9 8 7 6 6 6 6 5 5 6 6 6 5 4
10 15 16 4 5 9 9 8 10 6 10 7 8 10 20 22 22 17 13 20 14 14 11 11 11 12 11 11 11 11 10 10 7 5 5 4 4 6 5 6 8 5 7 4
15 15 7 10 11 11 8 7 9 7 10 4 8 7 14 15 18 18 12 4 10 11 14 13 13 13 12 12 12 11 11 10 9 7 5 5 4 0 3 5 7 7 7 6
10 6 11 13 12 11 11 5 4 11 13 5 14 5 13 16 17 22 21 14 16 18 13 15 15 14 13 12 11 11 11 10 9 9 8 8 7 5 4 3 3 6 7 7
7 10 12 12 11 8 2 3 7 7 7 5 11 8 14 17 15 19 21 19 18 16 14 13 13 15 13 12 11 11 11 9 9 9 8 8 7 7 6 4 7 7 6 8
12 6 7 8 7 9 1 7 6 5 5 9 8 11 12 16 21 20 21 23 20 18 16 13 14 13 12 12 11 11 12 10 9 9 8 9 8 6 5 7 7 7 7 8
8 13 9 4 9 8 12 12 8 9 8 9 7 7 6 13 9 21 23 23 23 17 16 12 12 14 13 13 13 12 12 11 10 10 9 9 8 7 7 7 8 6 5 7
12 15 14 13 11 8 14 17 11 11 11 11 8 6 2 7 5 10 18 22 22 19 15 12 14 13 14 14 14 13 13 12 11 11 10 7 6 5 6 9 6 7 7 5
8 7 8 13 11 13 14 16 15 14 11 8 10 8 6 7 8 11 14 20 21 19 12 15 14 14 15 14 14 14 13 13 12 11 8 8 7 6 7 6 6 5 5 7
5 7 9 12 9 12 12 8 15 10 13 14 7 8 4 10 10 12 14 20 22 21 16 13 11 12 13 14 12 14 13 13 12 11 9 8 7 6 5 5 7 8 6 7
3 8 11 10 13 15 12 12 8 15 15 12 13 8 6 5 8 12 14 18 21 21 19 15 11 10 10 9 12 12 13 13 13 12 11 8 7 6 6 6 6 7 8 8
3 7 9 11 6 5 9 15 16 11 14 10 14 4 5 6 6 9 12 16 18 22 18 9 9 10 9 9 11 9 11 12 12 12 12 10 9 8 7 6 5 7 9 9
2 6 7 7 9 6 10 6 11 10 13 11 14 12 5 7 7 9 11 10 13 16 18 17 14 10 9 8 6 9 9 10 10 12 13 10 10 8 8 7 6 5 8 8
3 7 10 6 7 1 9 8 7 13 12 14 12 8 8 11 11 11 10 11 10 9 12 12 11 11 8 8 8 9 10 9 8 11 11 10 9 8 6 5 7 7 6 7
4 9 5 7 4 2 2 6 6 12 16 14 10 12 9 11 12 12 12 11 11 12 11 10 9 8 7 7 7 10 10 8 8 9 8 8 7 6 5 4 4 7 8 8
2 6 8 9 4 5 8 6 7 5 6 9 10 7 5 10 10 12 12 13 12 12 11 10 8 8 7 8 8 7 7 7 9 12 10 8 8 7 4 3 2 4 7 8
3 2 7 11 6 7 11 6 1 2 3 4 8 8 2 10 10 12 11 10 9 8 8 8 8 9 10 11 10 10 8 6 6 5 9 8 6 6 6 5 4 4 1 4
4 6 4 9 5 13 7 4 4 4 5 1 5 5 3 7 8 9 10 8 8 8 7 7 7 7 7 11 14 13 9 7 6 5 6 5 4 5 5 6 4 3 4 4
4 7 4 8 10 10 5 4 4 6 2 5 5 1 7 11 11 9 12 12 9 10 8 8 9 8 8 8 11 13 12 9 8 7 7 6 5 6 4 6 4 4 4 5
3 6 7 4 10 7 11 6 4 4 9 6 5 3 11 12 8 3 10 10 13 13 11 10 11 10 10 7 9 13 10 12 8 8 6 8 5 5 7 6 2 4 3 4
9 8 11 9 8 3 5 7 3 9 3 8 5 2 12 11 5 15 12 11 14 14 15 14 12 10 8 7 9 11 10 9 7 6 8 7 7 6 5 4 6 0 6 7
8 8 7 7 7 11 5 3 7 7 5 5 2 3 11 3 13 15 13 14 14 14 13 13 12 9 8 7 8 10 9 4 5 5 8 8 6 5 5 6 5 5 7 7
5 4 5 4 4 5 5 4 5 7 7 6 3 3 8 13 16 15 11 11 10 12 12 11 10 9 7 6 5 8 5 7 6 7 7 8 6 6 6 7 6 5 5 4
4 2 4 3 6 5 4 3 5 6 6 3 1 9 9 14 16 17 15 13 9 9 8 11 11 9 8 7 6 8 7 6 6 8 8 7 6 7 6 6 5 4 5 4
3 4 5 4 4 4 4 4 5 6 6 7 7 8 9 13 16 15 15 14 9 8 7 7 7 7 10 6 8 8 8 6 7 7 7 6 6 7 7 8 7 7 9 8
5 5 5 4 6 4 8 4 3 5 7 7 8 9 11 12 16 17 14 13 10 3 1 4 7 8 9 8 8 7 8 7 6 7 6 4 5 5 6 7 8 16 12 15
Wind_Direction
191 205 210 197 214 335 181 194 165 107 157 178 190 163 163 170 160 202 202 210 184 184 170 160 175 168 169 170 171 177 173 161 186 180 181 171 172 159 167 175 155 152 145 111
169 219 204 211 193 217 196 187 139 118 155 217 165 158 165 171 177 189 199 208 208 176 183 171 190 179 184 178 180 183 187 170 197 183 202 210 202 182 177 170 164 164 161 148
193 199 140 208 198 207 204 219 150 144 168 211 166 148 164 183 184 180 205 178 214 244 190 191 191 196 186 183 187 183 188 185 198 228 193 187 175 202 202 179 183 179 183 178
210 122 190 204 215 223 199 164 151 144 179 186 210 163 194 179 185 191 190 181 211 222 218 192 192 200 193 188 184 181 185 187 187 198 202 212 213 215 168 206 182 188 203 204
140 169 193 197 201 207 51 167 202 178 223 181 196 266 148 178 198 197 195 200 200 212 218 229 201 193 195 183 181 179 179 185 192 193 228 198 214 192 197 217 183 211 196 215
125 185 188 210 213 219 181 193 187 200 240 231 199 235 154 184 203 203 195 200 202 200 207 210 222 188 194 181 182 177 179 188 200 201 214 236 195 205 196 190 200 189 180 190
162 173 173 214 192 195 210 205 197 217 205 239 122 218 302 172 195 204 195 200 196 197 200 212 202 198 189 191 187 180 181 191 202 208 209 223 225 210 209 200 188 191 206 192
205 188 191 187 227 183 212 219 229 207 228 223 145 234 164 175 164 200 196 197 196 183 192 195 201 191 183 195 188 191 181 188 196 206 207 202 215 214 222 220 178 196 210 157
203 213 172 179 203 224 191 233 263 291 271 250 167 191 168 178 198 193 203 196 191 174 187 196 197 194 191 186 191 189 187 190 196 200 211 203 203 214 200 201 195 221 181 173
197 184 194 177 208 216 265 222 220 232 259 224 196 232 246 191 194 187 191 192 188 173 189 192 194 202 190 187 183 191 190 196 197 205 198 212 207 213 220 208 189 189 209 195
257 269 152 177 205 193 195 229 243 263 231 255 235 200 92 174 180 182 185 183 177 188 180 179 178 179 190 187 188 192 189 195 198 199 201 206 213 204 219 220 212 195 192 197
194 258 177 182 71 306 274 219 223 224 222 256 290 33 113 134 173 177 178 178 178 186 171 153 174 171 163 179 189 198 191 194 200 194 195 201 213 207 207 226 227 212 191 193
164 247 211 180 180 173 221 203 256 259 265 254 230 248 147 157 168 170 176 164 166 177 185 188 173 178 193 177 186 180 195 195 193 189 192 193 203 214 216 216 220 209 199 205
276 287 289 298 11 0 186 209 230 249 233 237 235 234 162 172 173 164 165 174 172 176 174 185 192 183 193 179 183 183 179 183 198 190 184 181 185 196 210 229 208 222 207 200
279 262 268 299 331 321 307 250 227 239 250 275 280 224 231 173 180 168 161 145 153 156 169 179 182 180 155 173 179 183 169 151 150 137 156 159 156 164 174 198 240 221 215 212
245 249 255 232 219 224 249 247 254 225 268 260 279 255 9 145 149 166 173 164 163 164 163 165 168 149 161 166 153 142 137 133 145 134 130 136 131 134 126 144 180 240 222 209
252 212 227 240 197 236 233 213 271 269 254 321 261 37 92 151 173 173 166 161 167 161 159 159 158 152 150 127 112 95 72 76 72 104 125 112 118 118 119 116 117 86 112 177
251 250 260 269 188 226 91 91 10 1 46 306 292 332 237 169 157 151 161 151 147 161 139 107 91 86 83 119 124 115 106 89 78 67 86 71 116 109 86 96 103 124 115 98
243 245 214 264 235 246 181 106 2 331 0 11 349 64 106 122 129 168 184 173 152 126 113 98 91 86 85 108 129 125 116 101 112 83 70 79 72 94 87 78 75 65 119 120
222 244 265 246 272 254 61 54 353 298 246 25 6 123 146 148 177 151 144 131 121 120 120 115 100 88 76 65 107 114 102 108 110 116 92 71 61 87 70 31 47 96 111 101
210 234 240 217 238 236 68 351 318 236 52 356 351 147 165 190 333 155 137 127 119 118 122 118 100 89 82 81 86 80 84 80 90 95 95 81 93 73 77 81 83 283 121 102
246 230 224 257 271 257 38 217 287 3 312 343 320 187 169 135 124 131 128 122 118 117 118 114 107 99 95 81 97 98 90 79 82 93 91 79 65 74 88 96 85 105 105 104
243 293 306 279 55 89 65 44 5 342 316 313 312 157 150 143 134 132 134 117 123 130 133 120 113 107 110 103 101 119 114 131 117 102 97 89 88 81 66 72 75 86 67 87
193 219 250 253 141 138 89 90 29 12 8 16 147 147 158 143 143 143 137 128 117 121 126 131 127 123 115 121 122 107 132 134 137 126 120 114 103 91 85 78 62 52 69 80
357 180 205 225 164 170 156 82 35 51 57 83 106 143 150 147 140 142 128 117 114 123 137 135 128 127 132 144 134 146 140 149 149 133 122 127 109 98 88 60 39 77 50 28
197 235 227 280 105 253 116 120 97 73 79 89 118 134 143 151 149 144 136 127 128 98 98 131 140 145 147 146 137 136 146 160 153 143 148 125 124 133 122 113 91 62 78 67